Time,TemperatureF,DewpointF,PressureIn,WindDirection,WindDirectionDegrees,WindSpeedMPH,WindSpeedGustMPH,Humidity,HourlyPrecipIn,Conditions,Clouds,dailyrainin,SolarRadiationWatts/m^2,SoftwareType,DateUTC
2013-02-12 00:09:00,52.4,51.0,29.99,NE,40,3.0,3.0,95,0.00,,,0.00,0,Wunderground v.1.15,2013-02-12 06:09:00,
2013-02-12 00:14:00,52.4,51.3,29.99,East,80,3.0,3.0,96,0.00,,,0.00,0,Wunderground v.1.15,2013-02-12 06:14:00,
2013-02-12 00:19:00,52.4,51.3,29.98,ENE,57,3.0,4.0,96,0.00,,,0.00,0,Wunderground v.1.15,2013-02-12 06:19:00,
2013-02-12 00:24:00,52.4,51.3,29.98,East,90,3.0,4.0,96,0.00,,,0.00,0,Wunderground v.1.15,2013-02-12 06:24:00,
2013-02-12 00:29:00,52.4,51.3,29.98,ENE,69,3.0,6.0,96,0.00,,,0.00,0,Wunderground v.1.15,2013-02-12 06:29:00,
2013-02-12 00:34:00,52.4,51.3,29.98,East,93,3.0,6.0,96,0.00,,,0.00,0,Wunderground v.1.15,2013-02-12 06:34:00,
2013-02-12 00:44:00,52.4,51.0,29.98,NE,43,5.0,5.0,95,0.00,,,0.00,0,Wunderground v.1.15,2013-02-12 06:44:00,
2013-02-12 00:49:00,52.5,51.1,29.97,East,92,4.0,4.0,95,0.00,,,0.00,0,Wunderground v.1.15,2013-02-12 06:49:00,
2013-02-12 00:59:00,52.5,51.1,29.97,East,83,4.0,4.0,95,0.00,,,0.00,0,Wunderground v.1.15,2013-02-12 06:59:00,
2013-02-12 01:09:00,52.6,51.2,29.97,ENE,68,5.0,5.0,95,0.00,,,0.00,0,Wunderground v.1.15,2013-02-12 07:09:00,
2013-02-12 01:14:00,52.6,51.2,29.97,ENE,70,4.0,5.0,95,0.00,,,0.00,0,Wunderground v.1.15,2013-02-12 07:14:00,
2013-02-12 01:19:00,52.7,51.3,29.96,NE,44,5.0,5.0,95,0.00,,,0.00,0,Wunderground v.1.15,2013-02-12 07:19:00,
2013-02-12 01:29:00,52.8,51.4,29.96,East,84,3.0,3.0,95,0.00,,,0.00,0,Wunderground v.1.15,2013-02-12 07:29:00,
2013-02-12 01:34:00,52.8,51.4,29.96,NE,37,3.0,3.0,95,0.00,,,0.00,0,Wunderground v.1.15,2013-02-12 07:34:00,
2013-02-12 01:39:00,52.9,51.5,29.96,ENE,66,3.0,6.0,95,0.00,,,0.00,0,Wunderground v.1.15,2013-02-12 07:39:00,
2013-02-12 01:44:00,52.9,51.5,29.96,East,93,4.0,6.0,95,0.00,,,0.00,0,Wunderground v.1.15,2013-02-12 07:44:00,
2013-02-12 01:49:00,52.9,51.5,29.95,ESE,104,4.0,4.0,95,0.00,,,0.00,0,Wunderground v.1.15,2013-02-12 07:49:00,
2013-02-12 01:59:00,53.0,51.6,29.95,NE,44,5.0,5.0,95,0.00,,,0.00,0,Wunderground v.1.15,2013-02-12 07:59:00,
2013-02-12 02:04:00,53.0,51.6,29.95,ENE,77,3.0,5.0,95,0.00,,,0.00,0,Wunderground v.1.15,2013-02-12 08:04:00,
2013-02-12 02:14:00,53.1,51.7,29.95,NE,42,4.0,5.0,95,0.00,,,0.00,0,Wunderground v.1.15,2013-02-12 08:14:00,
2013-02-12 02:19:00,53.1,51.7,29.95,ENE,61,3.0,3.0,95,0.00,,,0.00,0,Wunderground v.1.15,2013-02-12 08:19:00,
2013-02-12 02:24:00,53.1,51.7,29.94,NE,47,3.0,3.0,95,0.00,,,0.00,0,Wunderground v.1.15,2013-02-12 08:24:00,
2013-02-12 02:34:00,53.1,51.7,29.94,ENE,68,3.0,3.0,95,0.00,,,0.00,0,Wunderground v.1.15,2013-02-12 08:34:00,
2013-02-12 02:39:00,53.2,51.8,29.93,East,84,4.0,4.0,95,0.00,,,0.00,0,Wunderground v.1.15,2013-02-12 08:39:00,
2013-02-12 02:49:00,53.2,51.8,29.93,ENE,63,3.0,4.0,95,0.00,,,0.00,0,Wunderground v.1.15,2013-02-12 08:49:00,
2013-02-12 02:54:00,53.2,51.8,29.93,ENE,67,3.0,4.0,95,0.00,,,0.00,0,Wunderground v.1.15,2013-02-12 08:54:00,
2013-02-12 03:04:00,53.3,51.9,29.92,East,79,3.0,5.0,95,0.00,,,0.00,0,Wunderground v.1.15,2013-02-12 09:04:00,
2013-02-12 03:09:00,53.4,52.0,29.92,East,85,3.0,3.0,95,0.00,,,0.00,0,Wunderground v.1.15,2013-02-12 09:09:00,
2013-02-12 03:14:00,53.4,52.0,29.92,East,79,3.0,3.0,95,0.00,,,0.00,0,Wunderground v.1.15,2013-02-12 09:14:00,
2013-02-12 03:24:00,53.4,52.3,29.92,ENE,69,3.0,5.0,96,0.00,,,0.00,0,Wunderground v.1.15,2013-02-12 09:24:00,
2013-02-12 03:29:00,53.5,52.4,29.92,East,89,3.0,3.0,96,0.00,,,0.00,0,Wunderground v.1.15,2013-02-12 09:29:00,
2013-02-12 03:34:00,53.4,52.3,29.91,ESE,105,2.0,3.0,96,0.00,,,0.00,0,Wunderground v.1.15,2013-02-12 09:34:00,
2013-02-12 03:39:00,53.3,52.2,29.91,ENE,73,2.0,2.0,96,0.00,,,0.00,0,Wunderground v.1.15,2013-02-12 09:39:00,
2013-02-12 03:49:00,53.3,52.2,29.91,ENE,68,3.0,3.0,96,0.00,,,0.00,0,Wunderground v.1.15,2013-02-12 09:49:00,
2013-02-12 03:54:00,53.3,52.2,29.91,ESE,116,3.0,3.0,96,0.00,,,0.00,0,Wunderground v.1.15,2013-02-12 09:54:00,
2013-02-12 04:04:00,53.3,52.2,29.91,ENE,58,3.0,4.0,96,0.00,,,0.00,0,Wunderground v.1.15,2013-02-12 10:04:00,
2013-02-12 04:09:00,53.3,52.2,29.90,East,83,3.0,3.0,96,0.00,,,0.00,0,Wunderground v.1.15,2013-02-12 10:09:00,
2013-02-12 04:19:00,53.4,52.6,29.89,ENE,65,2.0,6.0,97,0.00,,,0.00,0,Wunderground v.1.15,2013-02-12 10:19:00,
2013-02-12 04:24:00,53.5,52.7,29.89,ENE,76,3.0,6.0,97,0.00,,,0.00,0,Wunderground v.1.15,2013-02-12 10:24:00,
2013-02-12 04:29:00,53.5,52.7,29.90,ENE,66,3.0,4.0,97,0.00,,,0.00,0,Wunderground v.1.15,2013-02-12 10:29:00,
2013-02-12 04:34:00,53.5,52.7,29.90,ESE,117,3.0,4.0,97,0.00,,,0.00,0,Wunderground v.1.15,2013-02-12 10:34:00,
2013-02-12 04:39:00,53.6,52.8,29.89,East,98,3.0,3.0,97,0.00,,,0.00,0,Wunderground v.1.15,2013-02-12 10:39:00,
2013-02-12 04:44:00,53.6,52.8,29.90,East,85,2.0,3.0,97,0.00,,,0.00,0,Wunderground v.1.15,2013-02-12 10:44:00,
2013-02-12 04:54:00,53.6,52.8,29.90,ENE,65,1.0,1.0,97,0.00,,,0.00,0,Wunderground v.1.15,2013-02-12 10:54:00,
2013-02-12 04:59:00,53.7,52.9,29.90,ENE,59,1.0,1.0,97,0.00,,,0.00,0,Wunderground v.1.15,2013-02-12 10:59:00,
2013-02-12 05:09:00,53.7,52.9,29.89,ENE,74,2.0,2.0,97,0.00,,,0.00,0,Wunderground v.1.15,2013-02-12 11:09:00,
2013-02-12 05:14:00,53.7,52.9,29.89,ESE,119,1.0,2.0,97,0.00,,,0.00,0,Wunderground v.1.15,2013-02-12 11:14:00,
2013-02-12 05:19:00,53.7,52.9,29.88,East,82,2.0,2.0,97,0.00,,,0.00,0,Wunderground v.1.15,2013-02-12 11:19:00,
2013-02-12 05:24:00,53.8,53.0,29.87,ENE,76,2.0,2.0,97,0.00,,,0.00,0,Wunderground v.1.15,2013-02-12 11:24:00,
2013-02-12 05:29:00,53.8,53.0,29.87,ENE,66,2.0,2.0,97,0.00,,,0.00,0,Wunderground v.1.15,2013-02-12 11:29:00,
2013-02-12 05:39:00,53.8,53.0,29.87,SSE,158,2.0,2.0,97,0.00,,,0.00,0,Wunderground v.1.15,2013-02-12 11:39:00,
2013-02-12 05:44:00,53.9,53.1,29.87,East,84,2.0,2.0,97,0.00,,,0.00,0,Wunderground v.1.15,2013-02-12 11:44:00,
2013-02-12 05:49:00,53.9,53.1,29.87,East,79,2.0,2.0,97,0.00,,,0.00,0,Wunderground v.1.15,2013-02-12 11:49:00,
2013-02-12 05:54:00,53.9,53.1,29.87,ENE,78,1.0,2.0,97,0.00,,,0.00,0,Wunderground v.1.15,2013-02-12 11:54:00,
2013-02-12 05:59:00,53.9,53.1,29.87,East,82,2.0,3.0,97,0.00,,,0.00,0,Wunderground v.1.15,2013-02-12 11:59:00,
2013-02-12 06:09:00,53.9,53.1,29.86,East,80,1.0,4.0,97,0.00,,,0.00,0,Wunderground v.1.15,2013-02-12 12:09:00,
2013-02-12 06:14:00,53.9,53.1,29.86,East,95,2.0,4.0,97,0.00,,,0.00,0,Wunderground v.1.15,2013-02-12 12:14:00,
2013-02-12 06:19:00,54.0,53.2,29.85,ENE,68,3.0,5.0,97,0.00,,,0.00,0,Wunderground v.1.15,2013-02-12 12:19:00,
2013-02-12 06:29:00,54.0,53.2,29.84,East,80,3.0,4.0,97,0.00,,,0.00,0,Wunderground v.1.15,2013-02-12 12:29:00,
2013-02-12 06:39:00,54.0,53.2,29.85,East,90,2.0,2.0,97,0.00,,,0.01,0,Wunderground v.1.15,2013-02-12 12:39:00,
2013-02-12 06:44:00,54.0,53.2,29.84,East,92,1.0,5.0,97,3.87,,,0.10,0,Wunderground v.1.15,2013-02-12 12:44:00,
2013-02-12 06:49:00,54.0,53.2,29.85,SE,125,1.0,1.0,97,0.30,,,0.14,0,Wunderground v.1.15,2013-02-12 12:49:00,
2013-02-12 06:54:00,54.0,53.4,29.85,ENE,73,1.0,3.0,98,0.25,,,0.19,0,Wunderground v.1.15,2013-02-12 12:54:00,
2013-02-12 07:04:00,54.0,53.4,29.85,East,86,1.0,1.0,98,0.09,,,0.20,0,Wunderground v.1.15,2013-02-12 13:04:00,
2013-02-12 07:14:00,54.0,53.4,29.85,SE,133,0.0,1.0,98,0.04,,,0.20,0,Wunderground v.1.15,2013-02-12 13:14:00,
2013-02-12 07:19:00,54.1,53.5,29.85,ESE,109,0.0,1.0,98,0.00,,,0.20,5,Wunderground v.1.15,2013-02-12 13:19:00,
2013-02-12 07:24:00,54.1,53.5,29.84,SE,125,0.0,1.0,98,0.00,,,0.20,5,Wunderground v.1.15,2013-02-12 13:24:00,
2013-02-12 07:34:00,54.1,53.5,29.84,East,101,1.0,1.0,98,0.00,,,0.20,11,Wunderground v.1.15,2013-02-12 13:34:00,
2013-02-12 07:39:00,54.2,53.6,29.84,ESE,113,1.0,1.0,98,0.00,,,0.20,19,Wunderground v.1.15,2013-02-12 13:39:00,
2013-02-12 07:49:00,54.3,53.7,29.84,East,101,1.0,1.0,98,0.00,,,0.20,18,Wunderground v.1.15,2013-02-12 13:49:00,
2013-02-12 07:54:00,54.4,53.8,29.84,ESE,119,1.0,1.0,98,0.00,,,0.20,21,Wunderground v.1.15,2013-02-12 13:54:00,
2013-02-12 08:04:00,54.5,53.9,29.84,SE,136,0.0,0.0,98,0.00,,,0.20,26,Wunderground v.1.15,2013-02-12 14:04:00,
2013-02-12 08:09:00,54.6,54.0,29.83,SE,139,0.0,0.0,98,0.00,,,0.20,19,Wunderground v.1.15,2013-02-12 14:09:00,
2013-02-12 08:14:00,54.7,54.1,29.83,ESE,103,1.0,1.0,98,0.00,,,0.20,28,Wunderground v.1.15,2013-02-12 14:14:00,
2013-02-12 08:19:00,54.7,54.1,29.84,ESE,113,1.0,1.0,98,0.00,,,0.20,18,Wunderground v.1.15,2013-02-12 14:19:00,
2013-02-12 08:29:00,54.8,54.2,29.84,ESE,116,0.0,1.0,98,0.00,,,0.20,42,Wunderground v.1.15,2013-02-12 14:29:00,
2013-02-12 08:34:00,54.9,54.3,29.84,ESE,116,0.0,1.0,98,0.00,,,0.20,51,Wunderground v.1.15,2013-02-12 14:34:00,
2013-02-12 08:39:00,55.0,54.4,29.84,East,101,0.0,1.0,98,0.00,,,0.20,39,Wunderground v.1.15,2013-02-12 14:39:00,
2013-02-12 08:44:00,55.2,54.6,29.84,East,101,1.0,1.0,98,0.00,,,0.20,65,Wunderground v.1.15,2013-02-12 14:44:00,
2013-02-12 08:54:00,55.4,54.8,29.84,ESE,122,1.0,1.0,98,0.00,,,0.20,47,Wunderground v.1.15,2013-02-12 14:54:00,
2013-02-12 08:59:00,55.5,54.9,29.84,SE,130,1.0,1.0,98,0.00,,,0.20,56,Wunderground v.1.15,2013-02-12 14:59:00,
2013-02-12 09:04:00,55.7,55.1,29.85,SE,131,1.0,1.0,98,0.00,,,0.20,53,Wunderground v.1.15,2013-02-12 15:04:00,
2013-02-12 09:09:00,55.8,55.2,29.85,SE,133,0.0,0.0,98,0.00,,,0.20,58,Wunderground v.1.15,2013-02-12 15:09:00,
2013-02-12 09:19:00,56.0,55.4,29.85,SE,130,1.0,1.0,98,0.00,,,0.20,30,Wunderground v.1.15,2013-02-12 15:19:00,
2013-02-12 09:24:00,56.1,55.5,29.85,SE,130,1.0,1.0,98,0.00,,,0.20,42,Wunderground v.1.15,2013-02-12 15:24:00,
2013-02-12 09:34:00,56.2,55.6,29.84,SE,136,1.0,1.0,98,0.00,,,0.20,76,Wunderground v.1.15,2013-02-12 15:34:00,
2013-02-12 09:44:00,56.5,55.9,29.83,SSE,157,1.0,4.0,98,0.00,,,0.20,102,Wunderground v.1.15,2013-02-12 15:44:00,
2013-02-12 09:49:00,56.7,56.1,29.82,SSE,156,1.0,3.0,98,0.00,,,0.20,141,Wunderground v.1.15,2013-02-12 15:49:00,
2013-02-12 09:54:00,56.9,56.3,29.82,SSE,157,1.0,3.0,98,0.00,,,0.20,102,Wunderground v.1.15,2013-02-12 15:54:00,
2013-02-12 09:59:00,57.0,56.4,29.82,SSE,161,2.0,3.0,98,0.00,,,0.20,116,Wunderground v.1.15,2013-02-12 15:59:00,
2013-02-12 10:09:00,57.2,56.6,29.82,SE,126,1.0,1.0,98,0.00,,,0.20,97,Wunderground v.1.15,2013-02-12 16:09:00,
2013-02-12 10:14:00,57.3,57.0,29.82,SSE,154,2.0,3.0,99,0.00,,,0.20,105,Wunderground v.1.15,2013-02-12 16:14:00,
2013-02-12 10:19:00,57.5,57.2,29.82,SSE,154,1.0,1.0,99,0.00,,,0.20,158,Wunderground v.1.15,2013-02-12 16:19:00,
2013-02-12 10:24:00,57.7,57.1,29.82,SSE,154,0.0,1.0,98,0.00,,,0.20,148,Wunderground v.1.15,2013-02-12 16:24:00,
2013-02-12 10:29:00,58.0,57.7,29.82,SSE,154,0.0,0.0,99,0.00,,,0.20,197,Wunderground v.1.15,2013-02-12 16:29:00,
2013-02-12 10:39:00,58.4,58.1,29.82,SSE,154,0.0,0.0,99,0.00,,,0.20,109,Wunderground v.1.15,2013-02-12 16:39:00,
2013-02-12 10:44:00,58.6,58.3,29.83,SSE,154,0.0,0.0,99,0.00,,,0.20,84,Wunderground v.1.15,2013-02-12 16:44:00,
2013-02-12 10:49:00,58.7,58.4,29.83,SSE,154,0.0,0.0,99,0.00,,,0.20,93,Wunderground v.1.15,2013-02-12 16:49:00,
2013-02-12 10:54:00,58.8,58.5,29.83,SSE,154,0.0,0.0,99,0.00,,,0.20,79,Wunderground v.1.15,2013-02-12 16:54:00,
2013-02-12 10:59:00,59.0,58.7,29.83,SSE,154,0.0,0.0,99,0.00,,,0.20,113,Wunderground v.1.15,2013-02-12 16:59:00,
2013-02-12 11:09:00,59.3,59.0,29.83,SSE,154,0.0,0.0,99,0.00,,,0.20,76,Wunderground v.1.15,2013-02-12 17:09:00,
2013-02-12 11:14:00,59.3,59.0,29.83,SSE,154,0.0,1.0,99,0.00,,,0.20,74,Wunderground v.1.15,2013-02-12 17:14:00,
2013-02-12 11:19:00,59.4,59.1,29.83,SSE,155,0.0,1.0,99,0.00,,,0.20,77,Wunderground v.1.15,2013-02-12 17:19:00,
2013-02-12 11:24:00,59.4,59.1,29.83,SSE,155,0.0,1.0,99,0.00,,,0.20,63,Wunderground v.1.15,2013-02-12 17:24:00,
2013-02-12 11:29:00,59.5,59.2,29.82,SSE,155,0.0,0.0,99,0.00,,,0.20,74,Wunderground v.1.15,2013-02-12 17:29:00,
2013-02-12 11:39:00,59.5,59.2,29.82,SSE,154,1.0,1.0,99,0.00,,,0.20,91,Wunderground v.1.15,2013-02-12 17:39:00,
2013-02-12 11:49:00,59.7,59.1,29.81,SSE,154,0.0,0.0,98,0.00,,,0.20,100,Wunderground v.1.15,2013-02-12 17:49:00,
2013-02-12 11:59:00,59.7,59.7,29.82,SSE,154,0.0,0.0,100,0.00,,,0.20,113,Wunderground v.1.15,2013-02-12 17:59:00,